When you browse on this site, cookies collect data to enhance your experience and personalize the content and advertising you see.
Visit our Privacy Policy to learn more. By continuing to use the site, you agree to this use of cookies and data.
  • En España
  • Lista de países
  • Para 7 días
  • Temperatura del agua
  • Mapa Satelital
  • El tiempo en el mapa
  • Informadores
  • user-avatar
    Iniciar sesión

    Tiempo cada hora Velika Gorica

    Hoy, 19 Junio, Miércoles

    Tiempo Temperatura Precipitaciones Viento Presión Humedad
    00:00 +19°C° 0.3 mm 0 mps 750 mmHg 89%
    01:00 +19°C° 0 mm 0 mps 750 mmHg 87%
    02:00 +18°C° 0.1 mm 0 mps 750 mmHg 88%
    03:00 +18°C° 0.1 mm 0 mps 750 mmHg 89%
    04:00 +18°C° 0.1 mm 0 mps 750 mmHg 90%
    05:00 +19°C° 0 mm 0 mps 750 mmHg 88%
    06:00 +20°C° 0 mm 0 mps 750 mmHg 86%
    07:00 +21°C° 0 mm 0 mps 750 mmHg 84%
    08:00 +23°C° 0.2 mm 0 mps 750 mmHg 76%
    09:00 +25°C° 0.2 mm 0 mps 749 mmHg 69%
    10:00 +29°C° 0.2 mm 1 mps 749 mmHg 61%
    11:00 +30°C° 0.2 mm 1 mps 749 mmHg 56%
    12:00 +31°C° 0.2 mm 1 mps 749 mmHg 50%
    13:00 +32°C° 0.2 mm 2 mps 749 mmHg 45%
    14:00 +32°C° 0.2 mm 2 mps 748 mmHg 45%
    15:00 +32°C° 0.2 mm 2 mps 748 mmHg 46%
    16:00 +32°C° 0.2 mm 2 mps 748 mmHg 46%
    17:00 +30°C° 0 mm 1 mps 748 mmHg 53%
    18:00 +29°C° 0 mm 1 mps 748 mmHg 59%
    19:00 +27°C° 0 mm 1 mps 748 mmHg 66%
    20:00 +26°C° 0 mm 1 mps 748 mmHg 69%
    21:00 +24°C° 0 mm 1 mps 748 mmHg 73%
    22:00 +23°C° 0 mm 1 mps 748 mmHg 76%
    23:00 +22°C° 0 mm 1 mps 748 mmHg 78%

    Mañana, 20 Junio, Jueves

    Tiempo Temperatura Precipitaciones Viento Presión Humedad
    00:00 +22°C° 0 mm 1 mps 748 mmHg 80%
    01:00 +21°C° 0 mm 1 mps 748 mmHg 82%
    02:00 +21°C° 0 mm 1 mps 748 mmHg 83%
    03:00 +20°C° 0 mm 1 mps 748 mmHg 84%
    04:00 +20°C° 0 mm 1 mps 748 mmHg 85%
    05:00 +21°C° 0.3 mm 1 mps 748 mmHg 81%
    06:00 +23°C° 0.3 mm 1 mps 748 mmHg 78%
    07:00 +22°C° 0.3 mm 0 mps 749 mmHg 74%
    08:00 +26°C° 0 mm 1 mps 749 mmHg 66%
    09:00 +28°C° 0 mm 1 mps 749 mmHg 58%
    10:00 +31°C° 0 mm 1 mps 749 mmHg 50%
    11:00 +32°C° 0 mm 1 mps 748 mmHg 46%
    12:00 +33°C° 0 mm 1 mps 748 mmHg 42%
    13:00 +33°C° 0 mm 0 mps 748 mmHg 38%
    14:00 +34°C° 0 mm 1 mps 748 mmHg 39%
    15:00 +34°C° 0 mm 1 mps 747 mmHg 39%
    16:00 +33°C° 0 mm 1 mps 747 mmHg 40%
    17:00 +30°C° 1.5 mm 1 mps 747 mmHg 51%
    18:00 +27°C° 1.5 mm 1 mps 747 mmHg 63%
    19:00 +24°C° 1.5 mm 1 mps 747 mmHg 74%
    20:00 +23°C° 0.2 mm 1 mps 748 mmHg 76%
    21:00 +22°C° 0.2 mm 1 mps 748 mmHg 77%
    22:00 +21°C° 0.2 mm 1 mps 749 mmHg 79%
    23:00 +21°C° 0 mm 1 mps 749 mmHg 81%

    Pasado mañana, 21 Junio, Viernes

    Tiempo Temperatura Precipitaciones Viento Presión Humedad
    00:00 +21°C° 0 mm 1 mps 749 mmHg 83%
    01:00 +20°C° 0 mm 1 mps 749 mmHg 84%
    02:00 +20°C° 0 mm 1 mps 749 mmHg 86%
    03:00 +20°C° 0 mm 1 mps 750 mmHg 89%
    04:00 +19°C° 0 mm 1 mps 750 mmHg 91%
    05:00 +20°C° 0 mm 1 mps 750 mmHg 87%
    06:00 +22°C° 0 mm 1 mps 750 mmHg 84%
    07:00 +23°C° 0 mm 1 mps 751 mmHg 80%
    08:00 +25°C° 0 mm 1 mps 751 mmHg 72%
    09:00 +27°C° 0 mm 1 mps 751 mmHg 63%
    10:00 +29°C° 0 mm 1 mps 751 mmHg 55%
    11:00 +30°C° 0 mm 1 mps 751 mmHg 51%
    12:00 +31°C° 0 mm 1 mps 751 mmHg 47%
    13:00 +30°C° 0 mm 0 mps 750 mmHg 44%
    14:00 +32°C° 0 mm 1 mps 750 mmHg 44%
    15:00 +32°C° 0 mm 1 mps 750 mmHg 44%
    16:00 +32°C° 0 mm 1 mps 750 mmHg 44%
    17:00 +30°C° 0.1 mm 1 mps 750 mmHg 53%
    18:00 +28°C° 0.1 mm 1 mps 750 mmHg 62%
    19:00 +27°C° 0.1 mm 1 mps 750 mmHg 71%
    20:00 +25°C° 1.1 mm 1 mps 750 mmHg 77%
    21:00 +23°C° 1.1 mm 1 mps 750 mmHg 83%
    22:00 +22°C° 1.1 mm 1 mps 751 mmHg 89%
    23:00 +21°C° 0.6 mm 1 mps 751 mmHg 89%

    22 Junio, Sábado

    Tiempo Temperatura Precipitaciones Viento Presión Humedad
    00:00 +21°C° 0.6 mm 1 mps 751 mmHg 89%
    01:00 +21°C° 0.6 mm 1 mps 751 mmHg 90%
    02:00 +20°C° 0.1 mm 1 mps 750 mmHg 90%
    03:00 +20°C° 0.1 mm 1 mps 750 mmHg 90%
    04:00 +18°C° 0.1 mm 0 mps 750 mmHg 91%
    05:00 +19°C° 0 mm 0 mps 750 mmHg 87%
    06:00 +21°C° 0 mm 0 mps 750 mmHg 83%
    07:00 +22°C° 0 mm 0 mps 751 mmHg 80%
    08:00 +24°C° 0 mm 0 mps 751 mmHg 71%
    09:00 +28°C° 0 mm 1 mps 750 mmHg 63%
    10:00 +30°C° 0 mm 1 mps 750 mmHg 55%
    11:00 +31°C° 0 mm 1 mps 750 mmHg 51%
    12:00 +32°C° 0 mm 1 mps 750 mmHg 47%
    13:00 +34°C° 0 mm 2 mps 749 mmHg 43%
    14:00 +34°C° 0 mm 2 mps 749 mmHg 42%
    15:00 +34°C° 0 mm 2 mps 749 mmHg 41%
    16:00 +34°C° 0 mm 2 mps 748 mmHg 41%
    17:00 +31°C° 0 mm 2 mps 748 mmHg 47%
    18:00 +29°C° 0 mm 2 mps 748 mmHg 54%
    19:00 +28°C° 0 mm 2 mps 748 mmHg 61%
    20:00 +26°C° 0 mm 2 mps 748 mmHg 61%
    21:00 +25°C° 0 mm 2 mps 749 mmHg 62%
    22:00 +24°C° 0 mm 1 mps 749 mmHg 62%
    23:00 +23°C° 0 mm 1 mps 749 mmHg 64%

    23 Junio, Domingo

    Tiempo Temperatura Precipitaciones Viento Presión Humedad
    00:00 +22°C° 0 mm 1 mps 749 mmHg 66%
    01:00 +22°C° 0 mm 1 mps 749 mmHg 67%
    02:00 +21°C° 0 mm 1 mps 749 mmHg 71%
    03:00 +21°C° 0 mm 1 mps 750 mmHg 75%
    04:00 +20°C° 0 mm 1 mps 750 mmHg 79%
    05:00 +22°C° 0 mm 1 mps 750 mmHg 77%
    06:00 +23°C° 0 mm 1 mps 750 mmHg 75%
    07:00 +25°C° 0 mm 1 mps 751 mmHg 73%
    08:00 +26°C° 0 mm 1 mps 751 mmHg 68%
    09:00 +28°C° 0 mm 1 mps 751 mmHg 63%
    10:00 +29°C° 0 mm 1 mps 751 mmHg 58%
    11:00 +30°C° 0.2 mm 1 mps 751 mmHg 54%
    12:00 +31°C° 0.2 mm 1 mps 751 mmHg 50%
    13:00 +32°C° 0.2 mm 1 mps 751 mmHg 46%
    14:00 +32°C° 0 mm 1 mps 751 mmHg 47%
    15:00 +32°C° 0 mm 1 mps 751 mmHg 48%
    16:00 +32°C° 0 mm 1 mps 751 mmHg 50%
    17:00 +30°C° 0 mm 1 mps 751 mmHg 57%
    18:00 +29°C° 0 mm 2 mps 751 mmHg 63%
    19:00 +27°C° 0 mm 2 mps 751 mmHg 70%
    20:00 +26°C° 0.3 mm 2 mps 752 mmHg 75%
    21:00 +25°C° 0.3 mm 1 mps 753 mmHg 80%
    22:00 +23°C° 0.3 mm 1 mps 753 mmHg 85%
    23:00 +23°C° 0.3 mm 1 mps 753 mmHg 86%

    24 Junio, Lunes

    Tiempo Temperatura Precipitaciones Viento Presión Humedad
    00:00 +21°C° 0.3 mm 2 mps 754 mmHg 88%
    01:00 +21°C° 0.3 mm 2 mps 754 mmHg 89%
    02:00 +20°C° 0 mm 2 mps 754 mmHg 89%
    03:00 +20°C° 0 mm 2 mps 754 mmHg 89%
    04:00 +19°C° 0 mm 2 mps 755 mmHg 89%
    05:00 +20°C° 0 mm 2 mps 755 mmHg 87%
    06:00 +20°C° 0 mm 2 mps 755 mmHg 84%
    07:00 +20°C° 0 mm 2 mps 756 mmHg 81%
    08:00 +21°C° 0 mm 2 mps 756 mmHg 76%
    09:00 +23°C° 0 mm 2 mps 756 mmHg 71%
    10:00 +23°C° 0 mm 2 mps 756 mmHg 66%
    11:00 +25°C° 0 mm 2 mps 756 mmHg 62%
    12:00 +26°C° 0 mm 2 mps 756 mmHg 57%
    13:00 +28°C° 0 mm 2 mps 756 mmHg 52%
    14:00 +28°C° 0 mm 2 mps 756 mmHg 52%
    15:00 +28°C° 0 mm 2 mps 756 mmHg 53%
    16:00 +28°C° 0 mm 2 mps 755 mmHg 53%
    17:00 +27°C° 0 mm 2 mps 756 mmHg 59%
    18:00 +26°C° 0 mm 2 mps 756 mmHg 66%
    19:00 +25°C° 0 mm 2 mps 756 mmHg 72%
    20:00 +24°C° 0 mm 1 mps 756 mmHg 74%
    21:00 +22°C° 0 mm 1 mps 757 mmHg 75%
    22:00 +21°C° 0 mm 1 mps 757 mmHg 77%
    23:00 +21°C° 0 mm 1 mps 757 mmHg 78%
    Mostrar más